Location: Bretagne
(43.8474°N, 0.4650°W)
Time: 20:45:59
(UTC+00:00)

Landsat 7 - Pass Details

Date: 15 January 2026
Orbit: 680 x 682 km, 97.9° (Epoch: 13 February)

Event Time Altitude Azimuth Distance (km) Brightness Sun altitude
Rises 17:41:04 0° 172° (S) 3,029 7.3 -9.2°
Reaches altitude 10° 17:43:18 10° 174° (S) 2,119 6.5 -9.6°
Maximum altitude 17:47:55 69° 258° (WSW) 730 4.1 -10.4°
Drops below altitude 10° 17:52:35 10° 343° (NNW) 2,134 6.3 -11.1°
Sets 17:54:51 0° 345° (NNW) 3,054 7.1 -11.5°
